• In Germany
  • List of Countries
  • For 7 days
  • Water Temperature
  • Satellite Maps
  • Weather Map
  • Weather Widgets
  • user-avatar
    Login

    Hourly Weather Baku

    Today, 23 May, Wednesday

    Time Temperature Precipitation Wind Pressure Humidity
    00:00 +26°C° 0 mm 3 mps 763 mmHg 43%
    01:00 +25°C° 0 mm 3 mps 763 mmHg 43%
    02:00 +25°C° 0 mm 3 mps 763 mmHg 42%
    03:00 +25°C° 0 mm 3 mps 763 mmHg 41%
    04:00 +25°C° 0 mm 3 mps 763 mmHg 40%
    05:00 +26°C° 0 mm 3 mps 763 mmHg 39%
    06:00 +26°C° 0 mm 3 mps 763 mmHg 38%
    07:00 +27°C° 0 mm 3 mps 763 mmHg 36%
    08:00 +28°C° 0 mm 3 mps 763 mmHg 33%
    09:00 +30°C° 0 mm 3 mps 764 mmHg 29%
    10:00 +30°C° 0 mm 3 mps 764 mmHg 27%
    11:00 +31°C° 0 mm 3 mps 764 mmHg 25%
    12:00 +33°C° 0 mm 4 mps 764 mmHg 23%
    13:00 +33°C° 0 mm 3 mps 763 mmHg 23%
    14:00 +33°C° 0 mm 3 mps 763 mmHg 22%
    15:00 +34°C° 0 mm 3 mps 763 mmHg 22%
    16:00 +33°C° 0 mm 3 mps 763 mmHg 23%
    17:00 +31°C° 0 mm 3 mps 762 mmHg 24%
    18:00 +31°C° 0 mm 2 mps 762 mmHg 25%
    19:00 +30°C° 0 mm 2 mps 762 mmHg 28%
    20:00 +29°C° 0 mm 2 mps 762 mmHg 30%
    21:00 +28°C° 0 mm 1 mps 762 mmHg 32%
    22:00 +27°C° 0 mm 1 mps 762 mmHg 32%
    23:00 +27°C° 0 mm 1 mps 762 mmHg 32%

    Tomorrow, 24 May, Thursday

    Time Temperature Precipitation Wind Pressure Humidity
    00:00 +24°C° 0 mm 0 mps 761 mmHg 32%
    01:00 +26°C° 0 mm 1 mps 761 mmHg 32%
    02:00 +25°C° 0 mm 1 mps 761 mmHg 31%
    03:00 +25°C° 0 mm 1 mps 761 mmHg 31%
    04:00 +26°C° 0 mm 1 mps 761 mmHg 30%
    05:00 +26°C° 0 mm 1 mps 760 mmHg 28%
    06:00 +27°C° 0 mm 1 mps 760 mmHg 27%
    07:00 +28°C° 0 mm 2 mps 760 mmHg 26%
    08:00 +29°C° 0 mm 3 mps 760 mmHg 26%
    09:00 +32°C° 0 mm 4 mps 760 mmHg 25%
    10:00 +32°C° 0 mm 4 mps 760 mmHg 26%
    11:00 +32°C° 0 mm 5 mps 760 mmHg 28%
    12:00 +33°C° 0 mm 5 mps 760 mmHg 29%
    13:00 +33°C° 0 mm 5 mps 759 mmHg 29%
    14:00 +33°C° 0 mm 5 mps 759 mmHg 29%
    15:00 +33°C° 0 mm 5 mps 758 mmHg 29%
    16:00 +32°C° 0 mm 5 mps 758 mmHg 31%
    17:00 +30°C° 0 mm 4 mps 758 mmHg 32%
    18:00 +30°C° 0 mm 4 mps 757 mmHg 33%
    19:00 +29°C° 0 mm 4 mps 757 mmHg 37%
    20:00 +28°C° 0 mm 3 mps 757 mmHg 41%
    21:00 +27°C° 0 mm 3 mps 757 mmHg 44%
    22:00 +27°C° 0 mm 3 mps 757 mmHg 46%
    23:00 +26°C° 0 mm 3 mps 757 mmHg 49%

    Day after tomorrow, 25 May, Friday

    Time Temperature Precipitation Wind Pressure Humidity
    00:00 +26°C° 0 mm 3 mps 756 mmHg 51%
    01:00 +25°C° 0 mm 3 mps 756 mmHg 53%
    02:00 +25°C° 0 mm 3 mps 756 mmHg 54%
    03:00 +25°C° 0 mm 3 mps 756 mmHg 56%
    04:00 +25°C° 0 mm 3 mps 756 mmHg 54%
    05:00 +25°C° 0 mm 3 mps 756 mmHg 52%
    06:00 +26°C° 0 mm 3 mps 756 mmHg 50%
    07:00 +27°C° 0 mm 3 mps 756 mmHg 46%
    08:00 +28°C° 0 mm 3 mps 756 mmHg 41%
    09:00 +29°C° 0 mm 4 mps 756 mmHg 37%
    10:00 +30°C° 0 mm 4 mps 756 mmHg 34%
    11:00 +32°C° 0 mm 4 mps 755 mmHg 32%
    12:00 +33°C° 0 mm 5 mps 755 mmHg 29%
    13:00 +33°C° 0 mm 5 mps 755 mmHg 29%
    14:00 +33°C° 0 mm 5 mps 755 mmHg 29%
    15:00 +33°C° 0 mm 5 mps 754 mmHg 29%
    16:00 +33°C° 0 mm 5 mps 754 mmHg 30%
    17:00 +32°C° 0 mm 5 mps 754 mmHg 31%
    18:00 +30°C° 0 mm 4 mps 754 mmHg 32%
    19:00 +29°C° 0 mm 4 mps 754 mmHg 34%
    20:00 +29°C° 0 mm 4 mps 754 mmHg 36%
    21:00 +28°C° 0 mm 3 mps 754 mmHg 37%
    22:00 +28°C° 0 mm 3 mps 754 mmHg 39%
    23:00 +27°C° 0 mm 2 mps 754 mmHg 41%

    26 May, Saturday

    Time Temperature Precipitation Wind Pressure Humidity
    00:00 +27°C° 0 mm 2 mps 754 mmHg 42%
    01:00 +27°C° 0 mm 2 mps 754 mmHg 45%
    02:00 +26°C° 0 mm 3 mps 754 mmHg 47%
    03:00 +26°C° 0 mm 3 mps 754 mmHg 50%
    04:00 +26°C° 0 mm 4 mps 754 mmHg 51%
    05:00 +27°C° 0 mm 4 mps 754 mmHg 52%
    06:00 +27°C° 0 mm 4 mps 755 mmHg 54%
    07:00 +28°C° 0 mm 5 mps 755 mmHg 52%
    08:00 +28°C° 0 mm 6 mps 755 mmHg 50%
    09:00 +29°C° 0 mm 7 mps 756 mmHg 48%
    10:00 +29°C° 0 mm 7 mps 756 mmHg 48%
    11:00 +31°C° 0 mm 8 mps 756 mmHg 48%
    12:00 +31°C° 0 mm 8 mps 756 mmHg 47%
    13:00 +29°C° 0 mm 10 mps 756 mmHg 50%
    14:00 +29°C° 0 mm 11 mps 756 mmHg 52%
    15:00 +28°C° 0 mm 12 mps 756 mmHg 55%
    16:00 +27°C° 0.1 mm 14 mps 757 mmHg 60%
    17:00 +24°C° 0.1 mm 15 mps 757 mmHg 64%
    18:00 +23°C° 0.1 mm 17 mps 758 mmHg 69%
    19:00 +22°C° 0 mm 17 mps 759 mmHg 70%
    20:00 +22°C° 0 mm 18 mps 760 mmHg 70%
    21:00 +20°C° 0 mm 18 mps 760 mmHg 71%
    22:00 +20°C° 0 mm 18 mps 761 mmHg 68%
    23:00 +20°C° 0 mm 17 mps 761 mmHg 65%

    27 May, Sunday

    Time Temperature Precipitation Wind Pressure Humidity
    00:00 +19°C° 0 mm 17 mps 762 mmHg 62%
    01:00 +19°C° 0 mm 16 mps 762 mmHg 60%
    02:00 +19°C° 0 mm 16 mps 763 mmHg 58%
    03:00 +19°C° 0 mm 15 mps 763 mmHg 56%
    04:00 +19°C° 0 mm 14 mps 764 mmHg 57%
    05:00 +18°C° 0 mm 13 mps 764 mmHg 58%
    06:00 +18°C° 0 mm 12 mps 765 mmHg 60%
    07:00 +18°C° 0.2 mm 11 mps 765 mmHg 62%
    08:00 +18°C° 0.2 mm 10 mps 766 mmHg 65%
    09:00 +17°C° 0.2 mm 9 mps 767 mmHg 67%
    10:00 +17°C° 0.1 mm 8 mps 767 mmHg 65%
    11:00 +18°C° 0.1 mm 7 mps 767 mmHg 64%
    12:00 +19°C° 0.1 mm 6 mps 767 mmHg 62%
    13:00 +20°C° 0 mm 5 mps 766 mmHg 58%
    14:00 +20°C° 0 mm 5 mps 766 mmHg 55%
    15:00 +21°C° 0 mm 5 mps 766 mmHg 52%
    16:00 +21°C° 0 mm 5 mps 766 mmHg 52%
    17:00 +21°C° 0 mm 4 mps 766 mmHg 52%
    18:00 +20°C° 0 mm 4 mps 767 mmHg 52%
    19:00 +20°C° 0 mm 4 mps 767 mmHg 53%
    20:00 +20°C° 0 mm 4 mps 767 mmHg 54%
    21:00 +20°C° 0 mm 3 mps 768 mmHg 54%
    22:00 +19°C° 0 mm 3 mps 767 mmHg 55%
    23:00 +19°C° 0 mm 3 mps 767 mmHg 56%

    28 May, Monday

    Time Temperature Precipitation Wind Pressure Humidity
    00:00 +19°C° 0 mm 2 mps 767 mmHg 57%
    01:00 +19°C° 0 mm 2 mps 767 mmHg 58%
    02:00 +19°C° 0 mm 2 mps 767 mmHg 58%
    03:00 +19°C° 0 mm 1 mps 766 mmHg 59%
    04:00 +20°C° 0 mm 1 mps 767 mmHg 58%
    05:00 +20°C° 0 mm 1 mps 767 mmHg 57%
    06:00 +21°C° 0 mm 1 mps 767 mmHg 56%
    07:00 +20°C° 0 mm 2 mps 767 mmHg 54%
    08:00 +21°C° 0 mm 3 mps 767 mmHg 53%
    09:00 +22°C° 0 mm 4 mps 767 mmHg 52%
    10:00 +23°C° 0 mm 4 mps 766 mmHg 51%
    11:00 +25°C° 0 mm 5 mps 766 mmHg 51%
    12:00 +24°C° 0 mm 6 mps 765 mmHg 50%
    13:00 +26°C° 0 mm 6 mps 765 mmHg 51%
    14:00 +26°C° 0 mm 6 mps 764 mmHg 51%
    15:00 +26°C° 0 mm 6 mps 764 mmHg 52%
    16:00 +24°C° 0 mm 6 mps 764 mmHg 55%
    17:00 +24°C° 0 mm 7 mps 763 mmHg 58%
    18:00 +23°C° 0 mm 7 mps 763 mmHg 60%
    19:00 +23°C° 0 mm 6 mps 763 mmHg 62%
    20:00 +22°C° 0 mm 6 mps 763 mmHg 64%
    21:00 +22°C° 0 mm 6 mps 762 mmHg 66%
    22:00 +22°C° 0 mm 6 mps 762 mmHg 67%
    23:00 +22°C° 0 mm 5 mps 761 mmHg 68%
    Show more